CW4490 Weather Reports


time (UTC)temp
F
wind
direction
speed
knots
gust
knots
rain 1hr
in
rain 24hr
in
rain mn
in
humidity
%
barometer
mb
20260506113840 74 175 0.0 0.0 0.00 0.00 0.00 89 1003.9
20260506113347 74 175 0.0 0.0 0.00 0.00 0.00 88 1003.9
20260506112832 74 175 0.0 0.0 0.00 0.00 0.00 88 1004.1
20260506112339 74 175 0.0 0.0 0.00 0.00 0.00 88 1004.1
20260506111846 74 175 0.0 0.0 0.00 0.00 0.00 88 1004.1
20260506111455 74 174 0.0 0.0 0.00 0.00 0.00 88 1004.2
20260506110944 74 174 0.0 0.0 0.00 0.00 0.00 88 1004.2
20260506110442 74 174 0.0 0.0 0.00 0.00 0.00 88 1004.2
20260506105946 74 174 0.0 0.0 0.00 0.00 0.00 88 1004.0
20260506105434 74 173 0.0 0.0 0.00 0.00 0.00 87 1004.0
20260506105003 74 178 0.0 0.0 0.00 0.00 0.00 87 1004.0
20260506104448 74 176 0.0 0.0 0.00 0.00 0.00 87 1003.9
20260506103934 74 175 0.0 0.0 0.00 0.00 0.00 87 1003.9
20260506103421 75 175 0.0 0.0 0.00 0.00 0.00 87 1003.9
20260506102927 75 175 0.0 0.0 0.00 0.00 0.00 87 1003.8
20260506102413 75 175 0.0 0.0 0.00 0.00 0.00 86 1003.8
20260506101943 75 175 0.0 0.0 0.00 0.00 0.00 86 1003.8
20260506101408 75 175 0.0 0.9 0.00 0.00 0.00 86 1003.4
20260506100857 75 175 0.0 0.9 0.00 0.00 0.00 86 1003.4
20260506100408 75 174 0.0 0.0 0.00 0.00 0.00 86 1003.4
20260506095859 75 185 0.0 2.6 0.00 0.00 0.00 86 1003.5
20260506095406 75 188 0.0 2.6 0.00 0.00 0.00 86 1003.5
20260506094854 75 174 0.0 2.6 0.00 0.00 0.00 86 1003.5
20260506094340 75 174 0.0 7.8 0.00 0.00 0.00 85 1003.2
20260506093847 75 166 1.7 7.8 0.00 0.00 0.00 85 1003.2
20260506093354 75 200 0.0 2.6 0.00 0.00 0.00 85 1003.2
20260506092838 75 200 0.0 3.5 0.00 0.00 0.00 85 1002.9
20260506092404 75 198 0.9 3.5 0.00 0.00 0.00 85 1002.9
20260506091831 75 161 1.7 3.5 0.00 0.00 0.00 85 1002.9
20260506091514 75 170 0.9 3.5 0.00 0.00 0.00 85 1002.9
20260506090937 75 140 0.0 4.3 0.00 0.00 0.00 85 1002.9
20260506090458 75 218 0.9 6.1 0.00 0.00 0.00 85 1002.9
20260506085943 75 179 0.9 6.1 0.00 0.00 0.00 85 1002.7
20260506085449 75 171 0.9 6.1 0.00 0.00 0.00 85 1002.7
20260506084934 75 182 2.6 6.1 0.00 0.00 0.00 84 1002.7
20260506084421 75 275 0.9 5.2 0.00 0.00 0.00 84 1002.8
20260506083927 75 191 2.6 5.2 0.00 0.00 0.00 84 1002.8
20260506083414 75 227 0.9 4.3 0.00 0.00 0.00 84 1002.8
20260506082921 75 225 0.9 6.1 0.00 0.00 0.00 84 1002.8
20260506082413 75 180 0.9 7.0 0.00 0.00 0.00 84 1002.8
20260506081919 75 184 2.6 7.8 0.00 0.00 0.00 84 1002.8
20260506081404 75 238 0.9 7.8 0.00 0.00 0.00 84 1002.9
20260506080911 75 206 1.7 8.7 0.00 0.00 0.00 84 1002.9
20260506080402 75 191 2.6 8.7 0.00 0.00 0.00 84 1002.9
20260506073349 75 194 0.9 8.7 0.00 0.00 0.00 84 1003.0
20260506072836 76 140 1.7 8.7 0.00 0.00 0.00 84 1003.2
20260506072405 75 178 1.7 9.6 0.00 0.00 0.00 84 1003.2
20260506071854 75 233 5.2 10.4 0.00 0.00 0.00 84 1003.2
20260506071441 75 169 3.5 10.4 0.00 0.00 0.00 84 1003.3
20260506070949 75 163 3.5 9.6 0.00 0.00 0.00 84 1003.3
20260506070505 75 179 1.7 9.6 0.00 0.00 0.00 85 1003.3
20260506062436 76 143 2.6 8.7 0.00 0.00 0.00 84 1002.9
20260506061944 76 237 2.6 9.6 0.00 0.00 0.00 84 1003.0
20260506061408 76 156 1.7 9.6 0.00 0.00 0.00 84 1003.0
20260506060915 75 221 2.6 9.6 0.00 0.00 0.00 85 1002.9
20260506060415 75 187 3.5 8.7 0.00 0.00 0.00 85 1002.9
20260506050938 76 184 2.6 8.7 0.00 0.00 0.00 84 1003.4
20260506050436 76 164 1.7 9.6 0.00 0.00 0.00 84 1003.4
20260506044935 76 178 2.6 8.7 0.00 0.00 0.00 84 1003.1
20260506044419 76 165 1.7 8.7 0.00 0.00 0.00 84 1003.2
20260506043927 76 164 2.6 6.1 0.00 0.00 0.00 84 1003.2
20260506043434 76 146 1.7 8.7 0.00 0.00 0.00 84 1003.2
20260506042919 76 159 0.9 11.3 0.00 0.00 0.00 83 1002.9
20260506042426 76 192 2.6 11.3 0.00 0.00 0.00 83 1002.9
20260506041914 76 183 2.6 7.0 0.00 0.00 0.00 83 1002.9
20260506041439 76 169 3.5 6.1 0.00 0.00 0.00 83 1002.9
20260506040903 76 198 2.6 9.6 0.00 0.00 0.00 83 1002.9
20260506040401 77 185 2.6 9.6 0.00 0.00 0.00 83 1002.9
20260506035908 77 186 3.5 5.2 0.00 0.00 0.00 82 1002.8
20260506035352 77 205 0.9 2.6 0.00 0.00 0.00 81 1002.8
20260506034900 77 207 0.0 6.1 0.00 0.00 0.00 81 1002.8
20260506034406 77 188 0.0 6.1 0.00 0.00 0.00 81 1002.4
20260506033853 77 193 2.6 6.1 0.00 0.00 0.00 81 1002.4
20260506033401 77 206 1.7 6.1 0.00 0.00 0.00 81 1002.4
20260506032846 77 184 0.9 6.1 0.00 0.00 0.00 82 1002.4
20260506032332 76 196 3.5 6.1 0.00 0.00 0.00 82 1002.4
20260506031842 76 171 0.0 0.9 0.00 0.00 0.00 81 1002.4
20260506031348 76 177 0.0 0.9 0.00 0.00 0.00 81 1002.1
20260506030952 77 175 0.0 0.0 0.00 0.00 0.00 81 1002.2
20260506030449 77 169 0.0 2.6 0.00 0.00 0.00 81 1002.2
20260506025934 77 165 0.9 2.6 0.00 0.00 0.00 80 1002.1
20260506025442 77 190 0.0 2.6 0.00 0.00 0.00 80 1002.1
20260506024932 77 191 1.7 3.5 0.00 0.00 0.00 80 1002.1
20260506024439 77 180 0.0 4.3 0.00 0.00 0.00 79 1001.8
20260506023925 78 198 1.7 4.3 0.00 0.00 0.00 79 1001.8
20260506023452 78 153 0.0 2.6 0.00 0.00 0.00 79 1001.8
20260506022917 78 188 0.0 4.3 0.00 0.00 0.00 78 1001.5
20260506022424 78 182 0.9 4.3 0.00 0.00 0.00 78 1001.5
20260506021911 78 165 1.7 2.6 0.00 0.00 0.00 78 1001.5
20260506021417 78 182 0.9 3.5 0.00 0.00 0.00 77 1001.3
20260506020904 78 182 0.9 4.3 0.00 0.00 0.00 77 1001.3
20260506020402 79 170 0.9 4.3 0.00 0.00 0.00 77 1001.3
20260506015909 79 165 1.7 3.5 0.00 0.00 0.00 76 1000.9
20260506015356 79 140 0.0 5.2 0.00 0.00 0.00 76 1000.9
20260506014924 79 191 1.7 5.2 0.00 0.00 0.00 76 1000.9
20260506014349 79 155 2.6 5.2 0.00 0.00 0.00 76 1000.8
20260506013916 79 180 2.6 5.2 0.00 0.00 0.00 75 1000.8
20260506013342 79 174 2.6 5.2 0.00 0.00 0.00 75 1000.8
20260506012848 79 217 0.9 5.2 0.00 0.00 0.00 75 1000.8
20260506012333 80 175 2.6 6.1 0.00 0.00 0.00 75 1000.8
20260506011842 80 146 1.7 6.1 0.00 0.00 0.00 74 1000.8
20260506011327 80 360 2.6 5.2 0.00 0.00 0.00 74 1000.7
20260506010936 80 360 2.6 6.1 0.00 0.00 0.00 74 1000.7
20260506010454 80 181 2.6 6.1 0.00 0.00 0.00 73 1000.7
20260506005939 81 360 1.7 4.3 0.00 0.00 0.00 73 1000.7
20260506005446 81 360 2.6 8.7 0.00 0.00 0.00 73 1000.7
20260506004954 81 360 2.6 8.7 0.00 0.00 0.00 72 1000.7
20260506004439 82 131 4.3 8.7 0.00 0.00 0.00 71 1000.7
20260506003927 82 149 3.5 8.7 0.00 0.00 0.00 71 1000.7
20260506003434 82 137 2.6 7.8 0.00 0.00 0.00 71 1000.7
20260506002920 82 170 3.5 8.7 0.00 0.00 0.00 71 1000.8
20260506002427 82 146 4.3 8.7 0.00 0.00 0.00 71 1000.8
20260506001914 82 151 3.5 7.8 0.00 0.00 0.00 71 1000.8
20260506001420 82 169 3.5 7.8 0.00 0.00 0.00 71 1000.8
20260506000907 82 107 1.7 5.2 0.00 0.00 0.00 71 1000.8
20260506000405 82 151 2.6 9.6 0.00 0.00 0.00 71 1000.8
20260505235912 82 163 4.3 9.6 0.00 0.00 0.00 70 1000.7
20260505235358 82 159 1.7 6.1 0.00 0.00 0.00 71 1000.7
20260505234849 82 123 0.9 4.3 0.00 0.00 0.00 71 1000.7
20260505234355 83 149 2.6 6.1 0.00 0.00 0.00 70 1000.6
20260505233859 83 159 2.6 8.7 0.00 0.00 0.00 70 1000.6
20260505233347 83 118 4.3 8.7 0.00 0.00 0.00 70 1000.6
20260505232854 83 153 4.3 8.7 0.00 0.00 0.00 70 1000.6
20260505232340 83 195 2.6 8.7 0.00 0.00 0.00 69 1000.6
20260505231849 83 126 3.5 8.7 0.00 0.00 0.00 69 1000.6
20260505231334 83 158 2.6 8.7 0.00 0.00 0.00 69 1000.4
20260505230959 83 169 2.6 8.7 0.00 0.00 0.00 68 1000.4
20260505230457 83 128 5.2 8.7 0.00 0.00 0.00 68 1000.4
20260505225943 83 144 3.5 6.1 0.00 0.00 0.00 68 1000.3
20260505225450 83 263 1.7 6.1 0.00 0.00 0.00 68 1000.3
20260505224938 83 156 3.5 10.4 0.00 0.00 0.00 68 1000.3
20260505224443 84 123 3.5 10.4 0.00 0.00 0.00 68 1000.4
20260505223930 84 156 2.6 8.7 0.00 0.00 0.00 68 1000.4
20260505223421 84 130 2.6 9.6 0.00 0.00 0.00 67 1000.4
20260505222927 84 195 4.3 9.6 0.00 0.00 0.00 67 1000.1
20260505222414 84 119 4.3 9.6 0.00 0.00 0.00 67 1000.1
20260505221920 84 118 2.6 9.6 0.00 0.00 0.00 68 1000.1
20260505221408 84 139 6.1 9.6 0.00 0.00 0.00 67 1000.2
20260505220915 85 225 1.7 9.6 0.00 0.00 0.00 67 1000.3
20260505220408 85 154 3.5 9.6 0.00 0.00 0.00 67 1000.3
20260505215914 85 149 3.5 9.6 0.00 0.00 0.00 67 1000.5
20260505215402 85 155 5.2 9.6 0.00 0.00 0.00 66 1000.5
20260505214931 85 172 4.3 13.9 0.00 0.00 0.00 66 1000.5
20260505214356 85 202 4.3 13.9 0.00 0.00 0.00 66 1000.7
20260505213844 85 136 4.3 9.6 0.00 0.00 0.00 66 1000.7
20260505213351 86 149 2.6 11.3 0.00 0.00 0.00 66 1000.7
20260505212858 85 194 4.3 11.3 0.00 0.00 0.00 65 1000.7
20260505212344 85 133 5.2 9.6 0.00 0.00 0.00 64 1000.7
20260505211851 85 235 3.5 10.4 0.00 0.00 0.00 64 1000.7
20260505211336 86 149 7.0 10.4 0.00 0.00 0.00 63 1001.0
20260505210448 86 133 3.5 10.4 0.00 0.00 0.00 65 1001.0
20260505205932 85 130 2.6 11.3 0.00 0.00 0.00 66 1001.1
20260505205439 85 151 5.2 13.0 0.00 0.00 0.00 66 1001.1
20260505205008 86 156 5.2 13.0 0.00 0.00 0.00 65 1001.1
20260505204432 86 150 1.7 13.0 0.00 0.00 0.00 66 1001.1
20260505204001 86 242 6.1 13.0 0.00 0.00 0.00 65 1001.1
20260505203427 86 245 3.5 13.9 0.00 0.00 0.00 65 1001.1
20260505202933 85 213 3.5 13.9 0.00 0.00 0.00 66 1001.3
20260505202420 85 196 4.3 10.4 0.00 0.00 0.00 66 1001.3
20260505201927 85 136 3.5 10.4 0.00 0.00 0.00 66 1001.3
20260505201413 85 216 2.6 9.6 0.00 0.00 0.00 67 1001.8
20260505200941 84 170 4.3 9.6 0.00 0.00 0.00 67 1001.7
20260505200418 84 202 2.6 10.4 0.00 0.00 0.00 67 1001.7
20260505195904 84 171 4.3 13.0 0.00 0.00 0.00 67 1001.8
20260505195432 84 232 5.2 13.0 0.00 0.00 0.00 67 1001.8
20260505194856 84 207 5.2 11.3 0.00 0.00 0.00 67 1001.8
20260505194404 84 206 2.6 13.0 0.00 0.00 0.00 68 1002.1
20260505193851 83 155 2.6 13.0 0.00 0.00 0.00 69 1002.1
20260505193358 83 163 4.3 13.0 0.00 0.00 0.00 68 1002.1
20260505192843 83 147 2.6 9.6 0.00 0.00 0.00 68 1002.2
20260505192410 83 125 3.5 9.6 0.00 0.00 0.00 69 1002.2
20260505191838 83 202 3.5 9.6 0.00 0.00 0.00 68 1002.2
20260505191342 83 173 4.3 9.6 0.00 0.00 0.00 69 1002.4
20260505190830 83 211 5.2 10.4 0.00 0.00 0.00 69 1002.4
20260505190449 82 254 4.3 10.4 0.00 0.00 0.00 69 1002.3
20260505185933 82 191 3.5 9.6 0.00 0.00 0.00 69 1002.5
20260505185441 82 175 4.3 9.6 0.00 0.00 0.00 70 1002.5
20260505184929 82 180 5.2 9.6 0.00 0.00 0.00 69 1002.5
20260505184436 82 139 3.5 9.6 0.00 0.00 0.00 71 1002.9
20260505183923 81 217 3.5 12.2 0.00 0.00 0.00 71 1002.9
20260505183430 81 161 6.1 11.3 0.00 0.00 0.00 69 1002.9
20260505182915 81 197 5.2 10.4 0.00 0.00 0.00 70 1003.2
20260505182422 81 209 5.2 9.6 0.00 0.00 0.00 72 1003.2
20260505181932 80 214 3.5 8.7 0.00 0.00 0.00 72 1003.1
20260505181417 80 259 4.3 12.2 0.00 0.00 0.00 72 1003.3
20260505180904 79 261 6.1 12.2 0.00 0.00 0.00 73 1003.3
20260505180402 79 234 4.3 9.6 0.00 0.00 0.00 73 1003.3
20260505175907 78 161 1.7 10.4 0.00 0.00 0.00 76 1003.4
20260505175354 78 209 4.3 13.0 0.00 0.00 0.00 75 1003.4
20260505174901 78 207 4.3 13.0 0.00 0.00 0.00 75 1003.4
20260505174406 78 186 8.7 13.0 0.00 0.00 0.00 75 1003.6
20260505173914 77 208 4.3 10.4 0.00 0.00 0.00 76 1003.5
20260505173359 77 360 3.5 9.6 0.00 0.00 0.00 76 1003.5
20260505172844 77 360 3.5 13.0 0.00 0.00 0.00 78 1003.7
20260505172351 76 128 4.3 13.0 0.00 0.00 0.00 78 1003.7
20260505171858 76 227 6.1 12.2 0.00 0.00 0.00 78 1003.7
20260505171342 76 214 3.5 10.4 0.00 0.00 0.00 78 1003.9
20260505170835 76 202 4.3 9.6 0.00 0.00 0.00 78 1003.9
20260505170451 75 230 4.3 11.3 0.00 0.00 0.00 78 1003.8
20260505165955 75 278 6.1 11.3 0.00 0.00 0.00 79 1003.9
20260505165503 75 228 3.5 9.6 0.00 0.00 0.00 79 1003.9
20260505164931 75 236 3.5 10.4 0.00 0.00 0.00 80 1003.9
20260505164437 75 238 4.3 10.4 0.00 0.00 0.00 79 1003.9
20260505163924 75 259 5.2 9.6 0.00 0.00 0.00 80 1003.9
20260505163432 74 228 3.5 9.6 0.00 0.00 0.00 80 1003.9
20260505162917 74 153 0.9 7.8 0.00 0.00 0.00 81 1003.8
20260505162424 74 164 3.5 9.6 0.00 0.00 0.00 81 1003.8
20260505161934 73 239 7.0 12.2 0.00 0.00 0.00 81 1003.8
20260505161418 73 248 3.5 12.2 0.00 0.00 0.00 82 1003.7
20260505160908 73 277 3.5 11.3 0.00 0.00 0.00 82 1003.7
20260505160405 73 240 7.0 11.3 0.00 0.00 0.00 82 1003.7
20260505153343 72 196 4.3 11.3 0.00 0.00 0.00 83 1003.8
20260505152849 72 227 4.3 8.7 0.00 0.00 0.00 82 1003.9
20260505152335 72 237 2.6 11.3 0.00 0.00 0.00 82 1003.9
20260505151845 72 239 7.0 11.3 0.00 0.00 0.00 82 1003.9
20260505151336 72 244 4.3 9.6 0.00 0.00 0.00 83 1003.5
20260505150843 72 266 4.3 10.4 0.00 0.00 0.00 83 1003.5
20260505150442 72 208 4.3 10.4 0.00 0.00 0.00 83 1003.5
20260505140409 72 252 3.5 10.4 0.00 0.00 0.00 83 1003.0
20260505124930 71 233 2.6 10.4 0.00 0.00 0.00 83 1002.4
20260505124437 71 188 3.5 13.0 0.00 0.00 0.00 83 1002.3
20260505123925 71 243 3.5 13.0 0.00 0.00 0.00 84 1002.3
20260505123433 71 145 3.5 8.7 0.00 0.00 0.00 84 1002.3
20260505122918 71 181 3.5 8.7 0.00 0.00 0.00 84 1002.1
20260505122425 71 190 1.7 7.8 0.00 0.00 0.00 84 1002.1
20260505121932 71 161 1.7 10.4 0.00 0.00 0.00 84 1002.1
20260505121438 71 150 2.6 10.4 0.00 0.00 0.00 84 1001.8
20260505120925 71 198 1.7 8.7 0.00 0.00 0.00 84 1001.8
20260505120417 71 188 3.5 9.6 0.00 0.00 0.00 84 1001.8
20260505115903 71 263 0.9 9.6 0.00 0.00 0.00 84 1001.6
20260505115408 71 210 1.7 8.7 0.00 0.00 0.00 84 1001.6
20260505114855 71 167 1.7 6.1 0.00 0.00 0.00 84 1001.6
20260505114401 71 188 1.7 12.2 0.00 0.00 0.00 84 1001.7